Location: Bergnershof
(48.9468°N, 10.9431°E)
Time: 00:10:14
(UTC+00:00)

H-2A R/B - Pass Details

Date: 03 March 2021
Orbit: 732 x 837 km, 98.2° (Epoch: 13 April)

Event Time Altitude Azimuth Distance (km) Brightness Sun altitude
Rises 18:00:53 0° 171° (S) 3,367 5.2 -10.3°
Reaches altitude 10° 18:03:15 10° 173° (S) 2,442 4.5 -10.7°
Maximum altitude 18:08:40 71° 257° (WSW) 886 2.5 -11.6°
Drops below altitude 10° 18:14:08 10° 342° (NNW) 2,455 4.9 -12.5°
Sets 18:16:31 0° 345° (NNW) 3,385 5.6 -12.9°
